Date String (YYYY-MM-DD hh:mm:ss) UTC,Instrument flags,Ambient pressure (hPa),Sample flow (lpm),Bypass flow (lpm),Sample temperature (°C),Ambient temperature (°C),ASC tube jacket temperature (°C),LED temperature (°C),Box temperature (°C),Sample RH (%),Span deviation,Mass concentration (μg/m³),Mass concentration (μg/m³),Mass concentration (μg/m³)
DateTimeUTC,F1_M11,P_M11,Q1_M11,Q2_M11,T1_M11,T2_M11,T3_M11,T4_M11,T5_M11,U1_M11,ZSPAN_M11,X0_M11,X2_M11,X1_M11
2022-05-12 06:00:00,,0819.9,4.98,0.00,29.6,27.7,00.0,38.6,31.3,26.0,-001.7,0032.18,0010.45,0006.87
2022-05-12 06:01:00,,0819.9,4.99,0.00,29.6,27.9,00.0,38.6,31.3,26.0,-001.7,0032.75,0010.55,0006.86
2022-05-12 06:02:00,,0819.9,5.00,0.00,29.6,28.1,00.0,38.6,31.4,26.0,-001.3,0033.26,0010.53,0006.84
2022-05-12 06:03:00,,0819.9,5.01,0.00,29.7,28.3,00.0,38.6,31.4,26.0,-001.0,0034.16,0010.59,0006.85
2022-05-12 06:04:00,,0819.9,5.01,0.00,29.7,28.4,00.0,38.6,31.4,25.9,-000.9,0035.47,0010.59,0006.86
2022-05-12 06:05:00,,0819.9,5.00,0.00,29.7,28.4,00.0,38.6,31.5,25.8,-001.0,0034.19,0010.58,0006.86
2022-05-12 06:06:00,,0819.9,4.98,0.00,29.7,28.5,00.0,38.6,31.5,25.4,-000.9,0033.87,0010.70,0006.85
2022-05-12 06:07:00,,0819.9,5.00,0.00,29.7,28.6,00.0,38.6,31.5,23.6,-000.9,0033.91,0010.60,0006.80
2022-05-12 06:08:00,,0819.9,5.00,0.00,29.7,28.6,00.0,38.7,31.5,20.5,-000.6,0033.88,0010.48,0006.69
2022-05-12 06:09:00,,0819.9,5.00,0.00,29.7,28.6,00.0,38.7,31.5,19.2,-000.5,0033.43,0010.20,0006.54
2022-05-12 06:10:00,,0819.9,5.00,0.00,29.7,28.6,00.0,38.7,31.5,20.8,0000.2,0033.25,0009.93,0006.41
2022-05-12 06:11:00,,0819.9,5.00,0.00,29.7,28.6,00.0,38.7,31.5,21.4,0001.4,0032.29,0009.81,0006.34
2022-05-12 06:12:00,,0819.9,4.99,0.00,29.7,28.6,00.0,38.7,31.5,21.7,0002.0,0031.59,0009.62,0006.25
2022-05-12 06:13:00,,0819.9,5.02,0.00,29.7,28.7,00.0,38.7,31.5,21.6,0002.7,0031.12,0009.50,0006.18
2022-05-12 06:14:00,,0819.9,5.00,0.00,29.8,28.7,00.0,38.7,31.5,21.3,0002.7,0030.15,0009.31,0006.06
2022-05-12 06:15:00,,0820.0,4.99,0.00,29.8,28.7,00.0,38.7,31.5,23.3,0002.3,0029.19,0009.12,0005.99
2022-05-12 06:16:00,,0820.0,5.00,0.00,29.8,28.8,00.0,38.7,31.5,23.5,0002.0,0030.56,0009.10,0005.97
2022-05-12 06:17:00,,0819.9,5.01,0.00,29.8,28.8,00.0,38.7,31.6,23.5,0002.2,0032.18,0008.94,0005.94
2022-05-12 06:18:00,,0819.9,5.00,0.00,29.8,28.8,00.0,38.7,31.6,23.3,0002.5,0032.10,0008.93,0005.91
2022-05-12 06:19:00,,0819.9,5.01,0.00,29.8,28.8,00.0,38.7,31.7,23.1,0002.5,0031.68,0009.02,0005.96
2022-05-12 06:20:00,,0819.9,5.01,0.00,29.8,28.9,00.0,38.7,31.6,23.3,0002.2,0031.71,0009.19,0006.08
2022-05-12 06:21:00,,0819.9,5.00,0.00,29.8,28.9,00.0,38.7,31.7,23.0,0002.1,0029.98,0009.43,0006.18
2022-05-12 06:22:00,,0819.9,5.00,0.00,29.9,29.0,00.0,38.7,31.7,24.2,0001.1,0029.90,0009.53,0006.23
2022-05-12 06:23:00,,0819.9,4.99,0.00,29.9,29.0,00.0,38.7,31.7,24.2,0000.5,0030.43,0009.67,0006.32
2022-05-12 06:24:00,,0819.9,5.01,0.00,29.9,29.1,00.0,38.8,31.7,24.2,0000.2,0029.67,0009.72,0006.37
2022-05-12 06:25:00,,0819.8,5.00,0.00,29.9,29.1,00.0,38.8,31.7,24.0,-000.1,0030.47,0009.86,0006.45
2022-05-12 06:26:00,,0819.9,5.00,0.00,30.0,29.1,00.0,38.8,31.7,24.4,-000.1,0031.99,0009.88,0006.49
2022-05-12 06:27:00,,0819.9,5.00,0.00,30.0,29.2,00.0,38.8,31.8,24.5,0000.1,0030.71,0009.83,0006.52
2022-05-12 06:28:00,,0819.9,5.01,0.00,30.0,29.2,00.0,38.8,31.8,24.4,-000.2,0028.69,0009.79,0006.54
2022-05-12 06:29:00,,0819.9,5.00,0.00,30.0,29.2,00.0,38.9,31.8,24.4,-000.5,0029.42,0009.82,0006.57
2022-05-12 06:30:00,,0819.9,5.01,0.00,30.1,29.2,00.0,38.9,31.8,24.8,-000.6,0030.09,0009.90,0006.63
2022-05-12 06:31:00,,0819.9,5.00,0.00,30.1,29.2,00.0,38.9,31.9,24.9,-000.4,0030.01,0009.84,0006.67
2022-05-12 06:32:00,,0819.9,5.00,0.00,30.1,29.1,00.0,38.9,31.9,24.9,-000.5,0029.60,0009.85,0006.71
2022-05-12 06:33:00,,0820.0,5.01,0.00,30.0,27.4,00.0,38.9,31.5,25.1,-000.6,0028.31,0009.86,0006.73
2022-05-12 06:34:00,,0820.0,5.00,0.00,29.9,25.8,00.0,38.9,31.2,24.1,-000.5,0027.46,0009.80,0006.71
2022-05-12 06:35:00,,0820.0,4.99,0.00,29.8,25.8,00.0,38.8,31.1,24.1,-000.7,0028.14,0009.85,0006.71
2022-05-12 06:36:00,,0819.9,5.00,0.00,29.7,26.2,00.0,38.8,31.1,24.3,-000.6,0027.01,0009.82,0006.71
2022-05-12 06:37:00,,0819.9,5.00,0.00,29.6,26.6,00.0,38.7,31.1,24.3,-000.6,0025.89,0009.89,0006.68
2022-05-12 06:38:00,,0820.0,5.01,0.00,29.6,27.0,00.0,38.7,31.2,24.3,-000.6,0026.81,0009.96,0006.66
2022-05-12 06:39:00,,0819.9,4.99,0.00,29.6,27.3,00.0,38.7,31.2,24.3,-000.4,0026.78,0009.96,0006.65
2022-05-12 06:40:00,,0820.0,5.01,0.00,29.5,27.6,00.0,38.6,31.2,24.3,-000.4,0026.59,0009.91,0006.64
2022-05-12 06:41:00,,0819.9,5.00,0.00,29.5,27.8,00.0,38.6,31.2,24.2,-000.3,0027.66,0009.80,0006.59
2022-05-12 06:42:00,,0819.9,4.99,0.00,29.5,27.9,00.0,38.6,31.2,23.9,-000.1,0028.24,0009.86,0006.55
2022-05-12 06:43:00,,0819.9,5.00,0.00,29.5,28.0,00.0,38.6,31.2,23.4,-000.1,0028.36,0009.86,0006.53
2022-05-12 06:44:00,,0819.9,5.01,0.00,29.5,28.1,00.0,38.6,31.2,23.2,0000.3,0029.13,0009.84,0006.50
2022-05-12 06:45:00,,0819.9,5.00,0.00,29.5,28.1,00.0,38.6,31.2,23.0,0000.3,0029.92,0009.78,0006.48
2022-05-12 06:46:00,,0819.9,5.00,0.00,29.5,28.2,00.0,38.5,31.2,22.7,0001.3,0028.97,0009.69,0006.45
2022-05-12 06:47:00,,0819.9,5.00,0.00,29.4,28.2,00.0,38.5,31.2,22.6,0001.8,0028.89,0009.63,0006.43
2022-05-12 06:48:00,,0819.9,4.99,0.00,29.4,28.2,00.0,38.5,31.1,22.7,0002.1,0028.18,0009.62,0006.42
2022-05-12 06:49:00,,0819.9,5.00,0.00,29.4,28.2,00.0,38.5,31.1,22.7,0001.9,0026.68,0009.54,0006.39
2022-05-12 06:50:00,,0819.9,5.00,0.00,29.4,28.2,00.0,38.5,31.1,22.9,0001.9,0027.22,0009.53,0006.38
2022-05-12 06:51:00,,0820.0,5.00,0.00,29.3,28.2,00.0,38.5,31.1,22.9,0002.0,0026.38,0009.52,0006.36
2022-05-12 06:52:00,,0819.9,4.99,0.00,29.3,28.3,00.0,38.5,31.1,22.9,0001.7,0024.96,0009.51,0006.36
2022-05-12 06:53:00,,0819.9,5.00,0.00,29.3,28.3,00.0,38.4,31.1,22.8,0001.2,0024.10,0009.44,0006.35
2022-05-12 06:54:00,,0819.9,5.01,0.00,29.3,28.3,00.0,38.4,31.0,22.7,0001.0,0025.46,0009.34,0006.32
2022-05-12 06:55:00,,0819.9,5.00,0.00,29.3,28.3,00.0,38.4,31.0,22.4,0001.6,0025.82,0009.29,0006.30
2022-05-12 06:56:00,,0819.9,5.00,0.00,29.3,28.4,00.0,38.4,31.1,22.2,0001.6,0025.66,0009.25,0006.28
2022-05-12 06:57:00,,0819.9,4.99,0.00,29.3,28.4,00.0,38.4,31.1,22.3,0001.3,0026.38,0009.23,0006.28
2022-05-12 06:58:00,,0819.9,5.01,0.00,29.3,28.4,00.0,38.4,31.1,22.1,0000.7,0027.39,0009.26,0006.28
2022-05-12 06:59:00,,0819.9,5.00,0.00,29.3,28.4,00.0,38.4,31.1,22.0,0000.1,0028.62,0009.27,0006.28
